Regional Weather Roundup
Issued by NWS Cleveland, OH

Home | Current Version | Previous Version | Graphics & Text | Print | Product List | Glossary On
Versions: 1 2 3 4 5 6 7 8 9 10 11 12 13 14 15 16 17 18 19 20 21 22 23 24 25 26 27 28 29 30 31 32 33 34 35 36 37 38 39 40 41 42 43 44 45 46 47 48 49 50
000
ASUS41 KCLE 041810
RWRCLE
OHIO REGIONAL WEATHER ROUNDUP
NATIONAL WEATHER SERVICE WILMINGTON, OH
100 PM EST SUN DEC 04 2016

NOTE: "FAIR" INDICATES FEW OR NO CLOUDS BELOW 12,000 FEET WITH NO
SIGNIFICANT WEATHER AND/OR OBSTRUCTIONS TO VISIBILITY.

OHZ001>008-015>018-024>027-034-035-043-044-041900-
   NORTHWEST OHIO

CITY           SKY/WX    TMP DP  RH WIND       PRES   REMARKS
DEFIANCE       CLOUDY    40  29  64 E9        30.07F
FINDLAY        PTSUNNY   40  27  59 SE10      30.07F
TOLEDO EXPRESS PTSUNNY   38  29  70 VRB6      30.09F
TOLEDO EXEC    FAIR      39  29  67 SE10      30.10F
LIMA           CLOUDY    38  31  76 SE12      30.07F
$$

OHZ009>014-019>023-028>033-038-089-041900-
   NORTHEAST OHIO

CITY           SKY/WX    TMP DP  RH WIND       PRES   REMARKS
CLE-HOPKINS    CLOUDY    41  25  53 S7        30.17F
CLE-LAKEFRONT  FAIR      41  26  55 S10       30.14F
CUY CO. ARPT   CLOUDY    41  30  65 S13       30.15F
LORAIN-ELYRIA  FAIR      38  25  59 S9        30.14F
ASHTABULA      FAIR      40  29  64 S7        30.16F
AKRON-CANTON   CLOUDY    39  27  62 SE9       30.13F
WOOSTER        FAIR      37  27  67 SE9       30.13F
MANSFIELD      FAIR      37  26  64 SE10      30.10F
YOUNGSTOWN     CLOUDY    39  27  62 SE7       30.15F
$$

OHZ042-051>053-060>062-070>072-077>081-041900-
  SOUTHWEST OHIO

CITY           SKY/WX    TMP DP  RH WIND       PRES   REMARKS
CINC-COVINGTON CLOUDY    43  31  62 E9        30.01F
CINC-LUNKEN    FAIR      44  31  60 E6        30.04F
HAMILTON       FAIR      43  28  55 E9        30.04F
DAYTON         CLOUDY    38  28  67 SE14      30.04F
WRIGHT-PAT AFB FAIR      39  30  70 E10       30.04F
DAYTON GENERAL CLOUDY    40  28  62 E9G17     30.03F
WILMINGTON     FAIR      39  30  70 E9        30.04F
$$

OHZ036-037-039>041-045>050-054>059-063>069-073>076-082>088-041900-
  CENTRAL AND SOUTHEAST OHIO

CITY           SKY/WX    TMP DP  RH WIND       PRES   REMARKS
COLUMBUS       CLOUDY    40  30  67 E9        30.10F
OSU AIRPORT    PTSUNNY   40  29  64 SE8       30.09F
BOLTON FIELD   PTSUNNY   39  30  70 SE8       30.09F
RICKENBACK AFB FAIR      40  29  65 E9        30.09F
NEWARK         PTSUNNY   41  27  57 E8        30.10F
MARION         CLOUDY    39  27  62 SE12      30.09F
LANCASTER      FAIR      41  29  62 E10       30.11F
ZANESVILLE     PTSUNNY   41  27  57 E9        30.12F
NEW PHILLY     FAIR      40  27  59 SE10      30.14F
$$



USA.gov is the U.S. government's official web portal to all federal, state and local government web resources and services.